Time,TemperatureF,DewpointF,PressureIn,WindDirection,WindDirectionDegrees,WindSpeedMPH,WindSpeedGustMPH,Humidity,HourlyPrecipIn,Conditions,Clouds,dailyrainin,SoftwareType,DateUTC
2013-09-07 00:14:00,63.0,58.0,-100.00,SSE,155,3.0,7.0,82,0.00,,,-99.99,,2013-09-07 04:14:00,
2013-09-07 00:24:00,63.0,57.0,-100.00,SSE,150,4.0,9.0,80,0.00,,,-99.99,,2013-09-07 04:24:00,
2013-09-07 00:54:00,62.0,56.0,-100.00,SSE,150,4.0,8.0,81,0.00,,,-99.99,,2013-09-07 04:54:00,
2013-09-07 01:03:00,62.0,56.0,-100.00,SSE,150,4.0,8.0,81,0.00,,,-99.99,,2013-09-07 05:03:00,
2013-09-07 01:13:00,62.0,56.0,-100.00,SSE,150,4.0,8.0,81,0.00,,,-99.99,,2013-09-07 05:13:00,
2013-09-07 01:23:00,60.0,55.0,-100.00,SSE,155,3.0,4.0,83,0.00,,,-99.99,,2013-09-07 05:23:00,
2013-09-07 01:33:00,60.0,55.0,-100.00,SSE,155,3.0,4.0,83,0.00,,,-99.99,,2013-09-07 05:33:00,
2013-09-07 01:52:00,60.0,54.0,-100.00,SSE,165,4.0,7.0,79,0.00,,,-99.99,,2013-09-07 05:52:00,
2013-09-07 02:02:00,60.0,54.0,-100.00,SSE,165,4.0,7.0,79,0.00,,,-99.99,,2013-09-07 06:02:00,
2013-09-07 02:22:00,60.0,54.0,-100.00,South,190,1.0,4.0,81,0.00,,,-99.99,,2013-09-07 06:22:00,
2013-09-07 02:52:00,59.0,54.0,-100.00,South,170,2.0,6.0,83,0.00,,,-99.99,,2013-09-07 06:52:00,
2013-09-07 03:12:00,59.0,54.0,-100.00,South,170,1.0,6.0,82,0.00,,,-99.99,,2013-09-07 07:12:00,
2013-09-07 03:22:00,59.0,52.0,-100.00,South,175,2.0,6.0,78,0.00,,,-99.99,,2013-09-07 07:22:00,
2013-09-07 03:52:00,59.0,51.0,-100.00,SSW,210,2.0,6.0,75,0.00,,,-99.99,,2013-09-07 07:52:00,
2013-09-07 04:22:00,59.0,51.0,-100.00,South,190,1.0,5.0,73,0.00,,,-99.99,,2013-09-07 08:22:00,
2013-09-07 04:53:00,59.0,50.0,-100.00,South,190,2.0,6.0,72,2.83,,,-99.99,,2013-09-07 08:53:00,
2013-09-07 05:02:00,59.0,50.0,-100.00,South,190,2.0,6.0,72,2.83,,,-99.99,,2013-09-07 09:02:00,
2013-09-07 05:12:00,59.0,50.0,-100.00,South,190,2.0,6.0,72,2.83,,,-99.99,,2013-09-07 09:12:00,
2013-09-07 05:21:00,59.0,49.0,-100.00,South,190,1.0,6.0,71,0.00,,,-99.99,,2013-09-07 09:21:00,
2013-09-07 05:52:00,58.0,50.0,-100.00,South,190,2.0,7.0,74,0.00,,,-99.99,,2013-09-07 09:52:00,
2013-09-07 06:21:00,59.0,49.0,-100.00,South,185,2.0,6.0,71,0.00,,,-99.99,,2013-09-07 10:21:00,
2013-09-07 06:31:00,59.0,49.0,-100.00,South,185,2.0,6.0,71,0.00,,,-99.99,,2013-09-07 10:31:00,
2013-09-07 06:51:00,58.0,50.0,-100.00,SSW,195,2.0,7.0,72,0.00,,,-99.99,,2013-09-07 10:51:00,
2013-09-07 07:23:00,58.0,50.0,-100.00,SSW,200,1.0,5.0,75,0.00,,,-99.99,,2013-09-07 11:23:00,
2013-09-07 07:52:00,59.0,50.0,-100.00,South,180,2.0,5.0,73,0.00,,,-99.99,,2013-09-07 11:52:00,
2013-09-07 08:22:00,60.0,51.0,-100.00,SSW,205,1.0,4.0,71,0.00,,,-99.99,,2013-09-07 12:22:00,
2013-09-07 08:52:00,62.0,52.0,-100.00,SSW,205,2.0,7.0,69,0.00,,,-99.99,,2013-09-07 12:52:00,
2013-09-07 09:12:00,63.0,52.0,-100.00,South,190,1.0,6.0,67,0.00,,,-99.99,,2013-09-07 13:12:00,
2013-09-07 09:21:00,64.0,53.0,-100.00,SSW,195,2.0,6.0,69,0.00,,,-99.99,,2013-09-07 13:21:00,
2013-09-07 09:32:00,64.0,53.0,-100.00,SSW,195,2.0,6.0,69,0.00,,,-99.99,,2013-09-07 13:32:00,
2013-09-07 09:52:00,68.0,54.0,-100.00,SW,225,3.0,8.0,61,0.00,,,-99.99,,2013-09-07 13:52:00,
2013-09-07 10:22:00,69.0,54.0,-100.00,SW,225,3.0,12.0,58,0.00,,,-99.99,,2013-09-07 14:22:00,
2013-09-07 11:54:00,76.0,58.0,-100.00,SW,235,2.0,9.0,53,0.00,,,-99.99,,2013-09-07 15:54:00,
2013-09-07 12:24:00,79.0,62.0,-100.00,SW,230,3.0,10.0,55,0.00,,,-99.99,,2013-09-07 16:24:00,
2013-09-07 12:53:00,81.0,62.0,-100.00,SW,230,2.0,9.0,52,0.00,,,-99.99,,2013-09-07 16:53:00,
2013-09-07 13:12:00,81.0,63.0,-100.00,SW,230,5.0,11.0,53,0.00,,,-99.99,,2013-09-07 17:12:00,
2013-09-07 13:24:00,81.0,63.0,-100.00,SW,230,5.0,11.0,53,0.00,,,-99.99,,2013-09-07 17:24:00,
2013-09-07 13:52:00,83.0,64.0,-100.00,WSW,240,2.0,12.0,52,0.00,,,-99.99,,2013-09-07 17:52:00,
2013-09-07 14:22:00,83.0,65.0,-100.00,WNW,295,4.0,7.0,55,0.00,,,-99.99,,2013-09-07 18:22:00,
2013-09-07 14:43:00,83.0,66.0,-100.00,West,260,1.0,5.0,56,0.00,,,-99.99,,2013-09-07 18:43:00,
2013-09-07 14:52:00,82.0,66.0,-100.00,West,270,3.0,9.0,56,0.00,,,-99.99,,2013-09-07 18:52:00,
2013-09-07 15:11:00,82.0,66.0,-100.00,West,275,7.0,12.0,59,0.00,,,-99.99,,2013-09-07 19:11:00,
2013-09-07 15:22:00,81.0,65.0,-100.00,West,270,5.0,10.0,59,0.00,,,-99.99,,2013-09-07 19:22:00,
2013-09-07 15:53:00,82.0,65.0,-100.00,South,185,2.0,8.0,56,0.00,,,-99.99,,2013-09-07 19:53:00,
2013-09-07 16:22:00,81.0,65.0,-100.00,SW,230,3.0,7.0,59,0.00,,,-99.99,,2013-09-07 20:22:00,
2013-09-07 16:32:00,81.0,65.0,-100.00,SW,230,3.0,7.0,59,0.00,,,-99.99,,2013-09-07 20:32:00,
2013-09-07 16:53:00,80.0,67.0,-100.00,SW,225,1.0,4.0,65,0.00,,,-99.99,,2013-09-07 20:53:00,
2013-09-07 17:22:00,79.0,68.0,-100.00,North,355,0.0,0.0,68,0.00,,,-99.99,,2013-09-07 21:22:00,
2013-09-07 17:54:00,78.0,68.0,-100.00,West,280,6.0,11.0,70,0.00,,,-99.99,,2013-09-07 21:54:00,
2013-09-07 18:24:00,78.0,67.0,-100.00,West,280,5.0,11.0,68,0.00,,,-99.99,,2013-09-07 22:24:00,
2013-09-07 18:33:00,78.0,67.0,-100.00,West,280,5.0,11.0,68,0.00,,,-99.99,,2013-09-07 22:33:00,
2013-09-07 18:53:00,75.0,68.0,-100.00,NNE,30,0.0,4.0,79,3.39,,,-99.99,,2013-09-07 22:53:00,
2013-09-07 19:23:00,72.0,69.0,-100.00,SE,125,0.0,2.0,88,0.00,,,-99.99,,2013-09-07 23:23:00,
2013-09-07 19:52:00,71.0,68.0,-100.00,SSE,165,0.0,2.0,91,0.00,,,-99.99,,2013-09-07 23:52:00,
2013-09-07 20:22:00,71.0,68.0,-100.00,SSE,160,2.0,3.0,91,0.00,,,-99.99,,2013-09-08 00:22:00,
2013-09-07 20:52:00,71.0,68.0,-100.00,SSE,155,2.0,4.0,91,0.00,,,-99.99,,2013-09-08 00:52:00,
2013-09-07 21:01:00,71.0,68.0,-100.00,SSE,155,2.0,4.0,91,0.00,,,-99.99,,2013-09-08 01:01:00,
2013-09-07 21:22:00,71.0,68.0,-100.00,South,170,2.0,4.0,89,0.00,,,-99.99,,2013-09-08 01:22:00,
2013-09-07 21:42:00,72.0,67.0,-100.00,SSE,165,1.0,4.0,85,0.00,,,-99.99,,2013-09-08 01:42:00,
2013-09-07 21:52:00,72.0,67.0,-100.00,SSE,165,1.0,4.0,85,0.00,,,-99.99,,2013-09-08 01:52:00,
2013-09-07 22:23:00,71.0,67.0,-100.00,SSE,165,3.0,6.0,86,0.00,,,-99.99,,2013-09-08 02:23:00,
2013-09-07 22:52:00,71.0,66.0,-100.00,South,170,3.0,6.0,84,1.10,,,-99.99,,2013-09-08 02:52:00,
2013-09-07 23:23:00,71.0,67.0,-100.00,SSW,195,0.0,0.0,85,0.00,,,-99.99,,2013-09-08 03:23:00,
2013-09-07 23:54:00,71.0,67.0,-100.00,SSW,195,0.0,3.0,87,0.00,,,-99.99,,2013-09-08 03:54:00,